View from above orbital plane
|
View from above satellite
|
Ground track
|
The orbit data is extracted from the following two-line orbital elements,
1 39483U 13076A 21025.79663603 .00000046 00000-0 26224-3 0 9993
2 39483 82.4871 315.3820 0020664 64.6400 295.6807 12.42875232321569
Epoch (UTC): | 25 January 2021 19:07:09 |
Eccentricity: | 0.0020664 |
inclination: | 82.4871° |
perigee height: | 1478 km |
apogee height: | 1511 km |
right ascension of ascending node: | 315.3820° |
argument of perigee: | 64.6400° |
revolutions per day: | 12.42875232 |
mean anomaly at epoch: | 295.6807° |
orbit number at epoch: | 32156 |
The dashed part of the orbit path shows where the satellite is in the earth's shadow,
|
|